Temp
54 55 56 57 58 59 60 60 60 60 61 61 61 61 61 62 63 66 69 70 69 68 68 68 69 69 70 70 70 69 69 68 68 67 66 66 66 67 67 66 66 65 65 64 65 64 64 64 64 64 63 63 63 63 63 63 63 63 63 62 62 62 62 63 63 65 66 67 67
51 51 52 53 54 54 55 54 54 55 55 57 57 58 59 59 59 60 61 62 63 65 66 67 68 69 69 70 69 68 67 67 67 66 65 65 65 66 66 66 66 65 65 64 64 64 64 64 63 63 63 63 62 62 62 63 63 63 62 62 62 62 62 62 62 63 64 66 66
49 50 51 51 52 52 51 51 51 51 52 52 53 53 54 54 54 55 55 56 57 58 60 63 65 67 69 69 69 68 67 66 66 65 65 64 64 65 65 65 65 65 64 64 64 64 64 64 63 63 62 62 62 62 62 62 62 62 62 62 62 61 61 61 61 62 62 63 64
48 48 49 49 50 50 50 50 50 50 51 51 52 52 53 53 53 53 53 53 53 53 54 56 59 63 65 67 68 67 67 65 65 65 64 64 64 64 64 64 64 64 64 64 64 64 64 64 63 63 62 62 62 62 62 62 62 62 61 61 61 61 61 61 61 61 61 61 62
47 47 47 47 48 48 49 49 49 49 50 50 50 51 51 51 52 52 52 52 52 52 52 52 54 56 58 61 64 65 66 65 64 64 64 64 64 63 63 63 63 64 64 64 64 64 64 64 63 63 63 62 62 62 62 62 61 61 61 61 61 61 61 61 61 61 61 60 61
45 46 46 46 47 47 48 48 48 49 49 49 49 49 49 50 50 50 50 50 50 51 51 52 52 52 53 55 56 58 61 63 63 64 64 64 64 64 63 63 63 63 63 63 63 63 63 63 63 63 63 62 62 62 62 62 61 61 61 60 60 61 61 60 60 60 60 60 60
44 44 45 45 45 45 46 46 47 48 48 48 48 48 48 49 49 49 49 49 49 50 50 50 50 51 51 52 52 53 54 55 57 59 61 63 63 64 63 63 64 63 63 63 63 63 63 63 62 62 62 62 62 62 62 62 61 61 60 60 60 60 61 60 61 60 60 60 60
43 43 43 43 44 44 44 45 46 46 46 46 46 46 47 48 48 48 48 48 48 48 49 49 49 50 50 50 50 51 51 52 52 53 54 56 58 61 62 63 63 64 64 64 63 63 63 62 62 62 61 61 61 62 62 62 61 61 60 60 60 60 61 61 61 61 60 60 60
42 42 42 42 43 43 43 44 45 45 44 44 45 46 46 47 47 47 47 47 47 48 48 48 48 48 49 49 49 50 50 51 51 51 51 52 52 53 55 58 60 61 62 63 63 63 63 62 62 62 61 61 61 61 62 62 61 61 61 60 60 60 61 61 61 61 61 60 60
40 41 41 41 42 42 43 43 43 43 44 44 44 45 45 46 46 46 46 46 46 47 47 47 47 47 48 48 48 48 49 50 50 50 50 50 50 50 50 51 52 54 56 58 60 62 63 63 62 62 62 61 61 61 61 61 61 61 61 60 60 60 61 61 61 61 61 61 60
39 40 40 40 41 41 42 42 42 42 42 43 43 44 44 45 45 45 45 46 45 45 45 46 46 46 46 46 47 47 48 48 49 49 49 49 49 49 49 49 49 49 50 51 53 56 59 61 61 62 62 61 61 61 61 61 61 61 60 60 60 60 60 61 61 61 61 61 61
39 39 40 40 40 41 41 40 40 41 41 41 42 43 43 43 44 44 44 44 44 44 44 45 45 45 45 45 46 46 47 47 48 48 48 48 48 48 48 49 49 49 49 49 50 50 51 52 55 57 59 60 61 61 61 61 61 61 60 60 60 60 60 60 60 60 61 61 61
38 39 39 39 40 40 40 39 39 39 40 40 41 42 42 42 43 43 43 43 43 43 43 44 44 44 44 44 45 45 45 46 46 47 47 47 47 47 47 47 48 48 48 49 49 49 49 49 49 50 52 55 57 58 59 60 61 61 61 60 60 60 60 60 60 61 61 61 60
38 38 38 39 39 39 38 38 38 38 39 39 40 41 41 41 42 42 42 42 42 42 43 43 43 44 44 44 44 44 44 45 45 45 46 46 46 46 46 46 47 47 47 48 48 48 48 48 48 48 48 49 50 52 54 56 57 58 59 60 60 60 60 61 61 61 61 60 60
38 38 38 38 38 38 37 37 37 38 38 38 40 40 41 41 42 42 42 42 42 42 43 43 43 43 44 44 43 43 43 44 44 44 45 45 45 45 45 45 46 46 46 47 47 47 47 47 47 48 48 48 48 48 49 50 51 53 54 56 57 59 60 60 61 61 61 60 60
38 38 38 38 38 38 37 37 37 37 37 38 40 41 42 42 42 42 42 42 42 43 43 43 43 43 44 44 43 43 42 42 43 43 43 44 44 44 45 45 45 45 45 46 46 46 46 46 47 47 47 47 47 48 48 48 49 49 50 50 52 54 55 57 59 59 60 60 60
39 39 39 39 39 38 38 37 37 37 37 38 39 41 42 42 42 42 42 42 42 42 42 43 43 43 43 44 43 43 42 41 41 42 42 43 43 43 44 44 44 44 45 45 45 45 45 46 46 46 46 46 46 47 47 47 48 48 48 49 49 49 50 52 54 56 57 59 59
38 38 39 39 39 38 38 37 38 38 38 39 39 39 40 41 41 41 41 41 41 41 41 41 42 42 42 41 42 42 42 41 41 41 41 42 42 43 43 43 44 44 44 44 44 44 45 45 45 45 45 46 46 46 46 46 46 47 47 47 48 48 49 49 50 52 53 55 56
38 38 38 38 39 39 39 39 39 39 39 39 39 39 40 40 40 39 39 40 41 40 40 40 41 41 41 40 41 41 42 41 41 41 41 42 42 43 43 43 43 44 44 44 44 44 44 44 45 45 45 45 45 45 45 46 46 46 46 46 47 47 47 48 49 50 50 51 52
38 38 38 38 38 39 39 39 39 39 39 39 39 39 39 39 39 39 39 39 40 40 39 39 40 40 40 40 40 40 41 42 41 40 41 41 42 43 43 44 44 44 44 45 44 44 44 44 44 44 45 44 45 45 45 45 45 45 45 45 46 46 46 47 48 48 49 49 50
38 38 38 38 39 39 39 39 39 39 39 39 39 39 39 39 39 39 39 39 40 40 40 40 39 39 40 40 40 40 40 41 40 40 40 41 41 41 42 43 44 44 44 45 45 45 44 44 44 44 45 44 44 44 44 44 44 45 45 45 45 45 46 46 47 47 47 48 48
38 38 39 39 39 39 39 39 39 39 39 39 39 39 39 39 39 39 39 39 40 40 40 40 40 40 40 40 40 40 40 41 40 40 40 40 41 41 42 43 43 43 43 43 44 44 44 45 44 45 45 44 44 44 44 45 44 44 44 44 45 45 45 46 46 46 46 47 47
38 39 39 39 39 39 39 39 39 39 39 39 40 39 39 39 39 39 39 39 39 39 39 40 40 40 40 40 40 40 40 40 39 39 40 40 41 41 42 43 42 42 43 43 43 44 44 44 44 44 44 44 44 44 44 46 45 44 44 44 44 45 45 45 45 46 46 46 46
38 39 39 39 39 39 39 39 39 39 39 39 39 39 40 40 40 39 39 39 39 38 38 38 39 40 40 40 40 40 40 40 39 39 39 40 40 41 41 42 42 43 43 44 44 44 44 44 44 44 44 44 43 44 45 45 45 45 44 44 44 44 44 44 45 45 45 45 46
38 38 38 38 38 38 38 38 38 38 38 39 39 39 40 40 40 40 39 39 39 38 38 38 38 39 39 39 39 39 39 39 39 38 39 39 40 40 41 42 43 44 44 45 45 45 45 45 45 45 45 44 44 44 45 45 45 44 44 44 44 44 44 44 44 44 45 45 45
37 38 38 38 38 38 38 38 38 38 38 38 39 39 39 40 40 40 39 39 39 39 38 38 38 39 39 39 38 38 38 39 38 38 38 39 39 40 41 41 42 43 44 44 45 45 45 46 46 45 45 44 44 44 43 44 44 44 43 43 44 44 43 44 44 44 44 45 45
37 37 37 37 37 37 37 37 38 38 38 38 38 38 39 40 40 40 39 39 39 39 39 38 38 39 39 38 37 37 37 38 38 38 38 38 39 40 40 40 41 42 43 44 44 45 45 45 45 45 45 44 43 42 42 43 42 42 42 42 43 43 43 43 43 44 44 45 45
36 37 37 37 37 37 37 37 37 37 38 38 38 38 39 39 39 39 39 39 39 39 39 39 39 39 39 38 37 37 36 37 37 38 38 38 39 39 39 39 40 41 42 43 44 44 44 45 45 45 45 44 43 42 42 42 42 42 42 42 42 42 42 42 43 43 44 44 44
36 36 36 36 36 36 36 36 36 37 37 38 38 38 39 39 39 39 39 39 39 39 39 39 39 39 38 38 38 37 37 37 37 37 37 37 38 38 38 38 39 40 41 43 43 44 44 44 44 44 45 44 43 43 42 42 42 42 42 42 42 42 42 42 43 43 43 43 44
36 36 36 36 36 36 36 36 36 37 37 37 38 38 38 38 38 38 38 37 37 38 38 39 39 38 38 38 38 38 37 37 37 37 37 36 37 38 38 38 38 39 41 43 43 43 43 43 44 44 44 44 43 42 42 42 42 41 41 41 41 41 42 42 42 42 43 43 44
35 36 36 36 36 35 35 36 36 37 37 37 37 36 36 37 37 37 37 37 37 38 38 38 38 38 38 38 38 38 37 37 37 37 37 37 37 37 38 38 38 39 40 42 42 43 43 43 43 43 43 43 42 42 41 42 42 41 41 41 42 42 42 42 42 43 43 43 44
35 35 35 35 35 35 35 36 36 37 37 37 36 36 35 35 36 37 37 37 37 38 38 37 37 37 37 38 38 38 38 37 37 36 36 36 37 37 38 38 38 39 40 41 42 42 42 43 43 43 43 43 42 41 41 41 41 41 42 42 42 42 42 43 42 43 43 44 44
34 34 34 34 34 35 35 35 36 36 36 36 36 35 35 35 36 36 36 37 37 37 37 37 36 36 36 37 37 37 37 37 37 36 36 36 37 37 37 38 38 38 40 41 41 41 42 42 42 42 43 43 41 41 41 41 41 41 41 41 42 42 42 43 43 43 44 44 44
33 33 33 34 34 34 34 35 35 35 35 35 35 35 35 35 35 35 36 36 37 37 37 36 36 36 36 37 37 36 36 36 36 36 36 37 37 37 37 37 37 38 39 40 40 41 41 41 42 42 42 42 41 41 41 41 41 41 41 41 42 42 43 43 43 44 44 45 45
33 33 33 33 33 34 34 34 34 35 35 35 35 35 35 35 35 35 36 36 36 36 37 36 36 36 37 37 37 36 36 35 36 36 36 36 37 37 37 37 37 38 39 39 40 40 41 41 41 42 42 42 41 41 41 42 41 41 41 41 42 42 43 43 43 43 44 44 45
33 32 33 33 33 33 34 34 34 34 34 34 34 34 35 35 35 36 36 36 36 36 36 36 36 36 36 36 36 36 35 35 35 35 35 36 36 36 37 37 37 37 38 39 39 40 40 41 41 41 41 41 41 41 41 41 41 41 41 41 41 41 42 42 43 43 44 44 44
33 33 33 33 33 33 34 34 34 34 34 34 34 34 35 35 35 36 36 36 36 36 36 36 36 35 35 35 36 36 36 36 36 35 35 35 35 36 36 37 37 37 37 38 39 39 40 40 41 41 41 41 40 40 41 41 41 41 41 41 41 41 41 42 42 43 43 43 43
33 33 33 33 33 33 34 34 34 33 33 34 34 34 35 35 35 36 36 36 36 36 36 36 36 36 36 36 36 36 36 36 36 35 35 35 35 36 36 36 37 37 37 38 39 39 40 40 41 41 40 40 40 40 40 40 40 40 40 40 40 41 41 41 42 42 42 42 42
33 33 33 33 33 33 33 33 33 33 33 33 34 34 35 35 35 36 36 36 36 36 36 36 36 36 36 37 37 37 37 37 37 36 36 36 36 36 36 37 37 37 38 38 39 39 40 40 40 40 40 40 39 39 39 39 39 39 38 39 39 39 40 41 41 41 41 42 41
33 33 33 33 33 33 33 33 33 33 33 33 34 34 35 35 35 36 37 37 37 37 36 36 36 37 37 38 38 38 38 38 38 37 37 37 37 37 37 37 38 38 39 39 39 39 40 40 40 40 40 39 39 39 39 38 38 38 38 38 38 38 39 40 40 40 40 41 41
33 33 33 33 33 33 33 32 33 33 33 33 34 34 35 35 36 36 36 37 37 37 37 36 37 37 38 38 38 38 38 38 38 38 38 38 38 38 38 38 38 39 39 39 39 39 39 40 40 40 39 39 38 38 38 37 37 36 36 37 37 37 37 38 39 39 39 40 40
MSLP
1007.10 1007.00 1006.94 1006.82 1006.60 1006.38 1006.28 1006.28 1006.26 1006.22 1006.12 1006.00 1005.98 1005.90 1005.82 1005.66 1005.38 1005.00 1004.72 1004.66 1004.76 1004.82 1004.82 1004.76 1004.66 1004.56 1004.48 1004.44 1004.42 1004.38 1004.38 1004.32 1004.28 1004.26 1004.26 1004.26 1004.20 1004.16 1004.20 1004.28 1004.34 1004.42 1004.50 1004.60 1004.70 1004.76 1004.82 1004.90 1004.98 1005.04 1005.06 1005.12 1005.26 1005.42 1005.60 1005.76 1005.94 1006.16 1006.34 1006.50 1006.62 1006.84 1007.12 1007.42 1007.50 1007.54 1007.60 1007.70 1007.82
1007.66 1007.56 1007.48 1007.38 1007.32 1007.20 1007.10 1007.10 1007.06 1007.00 1006.88 1006.72 1006.62 1006.48 1006.28 1006.12 1005.94 1005.78 1005.70 1005.56 1005.54 1005.26 1004.88 1004.62 1004.54 1004.48 1004.38 1004.32 1004.32 1004.32 1004.28 1004.26 1004.20 1004.12 1004.12 1004.12 1004.12 1004.10 1004.10 1004.10 1004.16 1004.22 1004.28 1004.38 1004.48 1004.56 1004.62 1004.72 1004.82 1004.88 1004.94 1005.00 1005.06 1005.22 1005.42 1005.60 1005.82 1006.04 1006.22 1006.42 1006.56 1006.82 1007.10 1007.32 1007.38 1007.44 1007.48 1007.54 1007.62
1008.04 1007.90 1007.78 1007.70 1007.62 1007.50 1007.44 1007.48 1007.56 1007.50 1007.38 1007.28 1007.20 1007.06 1006.94 1006.78 1006.72 1006.66 1006.56 1006.48 1006.28 1005.90 1005.44 1005.00 1004.66 1004.42 1004.26 1004.22 1004.22 1004.22 1004.22 1004.20 1004.10 1004.06 1004.06 1004.06 1004.10 1004.10 1004.10 1004.06 1004.06 1004.12 1004.16 1004.20 1004.26 1004.34 1004.42 1004.54 1004.62 1004.76 1004.84 1004.94 1005.04 1005.16 1005.32 1005.54 1005.72 1005.90 1006.12 1006.28 1006.48 1006.72 1006.98 1007.16 1007.28 1007.34 1007.42 1007.48 1007.50
1008.38 1008.28 1008.20 1008.16 1008.06 1007.94 1007.88 1007.94 1008.00 1007.94 1007.78 1007.72 1007.56 1007.44 1007.32 1007.22 1007.12 1007.00 1006.90 1006.76 1006.56 1006.34 1006.10 1005.78 1005.26 1004.78 1004.48 1004.28 1004.16 1004.12 1004.16 1004.16 1004.12 1004.12 1004.12 1004.12 1004.12 1004.16 1004.16 1004.10 1004.10 1004.10 1004.12 1004.12 1004.12 1004.20 1004.26 1004.34 1004.48 1004.60 1004.72 1004.90 1005.06 1005.20 1005.34 1005.50 1005.70 1005.84 1006.00 1006.20 1006.38 1006.56 1006.76 1006.90 1007.10 1007.20 1007.28 1007.34 1007.38
1008.88 1008.82 1008.76 1008.72 1008.62 1008.54 1008.48 1008.48 1008.48 1008.42 1008.28 1008.12 1007.94 1007.78 1007.66 1007.60 1007.54 1007.42 1007.22 1007.00 1006.84 1006.72 1006.56 1006.26 1005.84 1005.48 1005.12 1004.82 1004.50 1004.26 1004.16 1004.16 1004.20 1004.20 1004.20 1004.20 1004.20 1004.22 1004.20 1004.12 1004.12 1004.10 1004.10 1004.10 1004.12 1004.16 1004.22 1004.28 1004.34 1004.48 1004.62 1004.84 1005.04 1005.20 1005.32 1005.50 1005.70 1005.88 1006.00 1006.16 1006.28 1006.42 1006.50 1006.66 1006.82 1006.98 1007.10 1007.26 1007.34
1009.42 1009.34 1009.28 1009.26 1009.12 1009.00 1008.94 1008.98 1008.98 1008.88 1008.72 1008.50 1008.26 1008.10 1008.04 1008.04 1007.94 1007.78 1007.62 1007.50 1007.34 1007.12 1006.84 1006.56 1006.28 1006.00 1005.72 1005.44 1005.16 1004.94 1004.76 1004.56 1004.38 1004.28 1004.26 1004.26 1004.26 1004.26 1004.22 1004.20 1004.16 1004.12 1004.16 1004.20 1004.22 1004.28 1004.32 1004.32 1004.34 1004.44 1004.56 1004.72 1004.88 1005.00 1005.20 1005.38 1005.62 1005.88 1006.10 1006.26 1006.32 1006.38 1006.44 1006.48 1006.62 1006.76 1006.90 1007.06 1007.28
1009.90 1009.84 1009.78 1009.72 1009.62 1009.56 1009.54 1009.44 1009.38 1009.22 1009.00 1008.76 1008.54 1008.48 1008.48 1008.44 1008.34 1008.22 1008.10 1007.90 1007.70 1007.44 1007.16 1006.90 1006.66 1006.42 1006.20 1005.94 1005.82 1005.66 1005.50 1005.32 1005.12 1004.94 1004.70 1004.44 1004.32 1004.26 1004.22 1004.20 1004.20 1004.16 1004.20 1004.26 1004.28 1004.34 1004.38 1004.38 1004.42 1004.48 1004.60 1004.76 1004.84 1004.94 1005.06 1005.22 1005.44 1005.72 1006.00 1006.22 1006.34 1006.44 1006.50 1006.54 1006.60 1006.70 1006.82 1007.00 1007.22
1010.34 1010.32 1010.26 1010.22 1010.16 1010.10 1010.04 1009.88 1009.72 1009.54 1009.28 1009.10 1009.00 1008.94 1008.90 1008.84 1008.76 1008.62 1008.48 1008.26 1008.00 1007.78 1007.54 1007.34 1007.10 1006.88 1006.66 1006.48 1006.28 1006.16 1006.04 1005.90 1005.78 1005.60 1005.44 1005.22 1004.98 1004.66 1004.42 1004.34 1004.26 1004.22 1004.22 1004.26 1004.32 1004.38 1004.42 1004.44 1004.50 1004.56 1004.66 1004.78 1004.90 1005.00 1005.06 1005.16 1005.28 1005.48 1005.72 1005.98 1006.20 1006.34 1006.44 1006.50 1006.60 1006.70 1006.84 1007.00 1007.20
1010.78 1010.76 1010.72 1010.66 1010.62 1010.60 1010.50 1010.32 1010.12 1009.90 1009.70 1009.56 1009.50 1009.48 1009.44 1009.38 1009.32 1009.12 1008.90 1008.66 1008.48 1008.22 1007.94 1007.72 1007.50 1007.28 1007.10 1006.90 1006.78 1006.66 1006.54 1006.42 1006.28 1006.16 1006.00 1005.82 1005.66 1005.50 1005.28 1005.00 1004.78 1004.66 1004.54 1004.38 1004.38 1004.38 1004.38 1004.44 1004.54 1004.62 1004.72 1004.88 1005.00 1005.10 1005.20 1005.22 1005.28 1005.38 1005.54 1005.72 1005.88 1006.06 1006.22 1006.38 1006.48 1006.62 1006.76 1006.94 1007.10
1011.28 1011.26 1011.22 1011.16 1011.20 1011.20 1011.06 1010.84 1010.62 1010.38 1010.16 1010.10 1010.06 1010.04 1010.00 1009.98 1009.82 1009.60 1009.38 1009.16 1008.84 1008.50 1008.26 1008.06 1007.84 1007.62 1007.50 1007.38 1007.32 1007.22 1007.10 1006.90 1006.78 1006.62 1006.48 1006.32 1006.22 1006.10 1006.00 1005.88 1005.78 1005.56 1005.28 1005.06 1004.82 1004.60 1004.48 1004.54 1004.60 1004.70 1004.82 1004.94 1005.06 1005.20 1005.28 1005.34 1005.42 1005.44 1005.54 1005.60 1005.72 1005.84 1005.98 1006.10 1006.26 1006.38 1006.54 1006.66 1006.82
1011.84 1011.82 1011.78 1011.78 1011.84 1011.76 1011.54 1011.20 1010.98 1010.78 1010.70 1010.66 1010.62 1010.56 1010.50 1010.42 1010.28 1010.10 1009.88 1009.54 1009.10 1008.78 1008.56 1008.42 1008.22 1008.10 1008.00 1007.90 1007.88 1007.76 1007.60 1007.42 1007.26 1007.10 1006.98 1006.84 1006.76 1006.66 1006.56 1006.44 1006.28 1006.12 1006.04 1005.94 1005.62 1005.34 1005.12 1004.94 1004.84 1004.84 1004.90 1005.00 1005.10 1005.22 1005.32 1005.42 1005.48 1005.54 1005.56 1005.62 1005.72 1005.78 1005.82 1005.90 1006.00 1006.12 1006.26 1006.42 1006.54
1012.42 1012.44 1012.44 1012.44 1012.32 1012.04 1011.70 1011.38 1011.26 1011.22 1011.20 1011.16 1011.06 1010.94 1010.84 1010.78 1010.70 1010.50 1010.22 1009.82 1009.42 1009.16 1009.00 1008.88 1008.70 1008.56 1008.48 1008.42 1008.34 1008.22 1008.04 1007.88 1007.78 1007.62 1007.48 1007.42 1007.28 1007.16 1007.04 1006.88 1006.76 1006.62 1006.50 1006.42 1006.32 1006.20 1006.06 1005.90 1005.70 1005.44 1005.26 1005.20 1005.22 1005.28 1005.34 1005.38 1005.44 1005.56 1005.62 1005.70 1005.76 1005.82 1005.84 1005.88 1005.90 1006.00 1006.10 1006.22 1006.38
1013.04 1012.98 1012.88 1012.72 1012.42 1012.06 1011.76 1011.56 1011.56 1011.56 1011.56 1011.54 1011.42 1011.28 1011.20 1011.16 1011.06 1010.88 1010.60 1010.20 1009.84 1009.60 1009.44 1009.32 1009.16 1009.04 1008.94 1008.88 1008.78 1008.62 1008.50 1008.38 1008.26 1008.10 1007.98 1007.84 1007.76 1007.62 1007.50 1007.38 1007.26 1007.12 1007.00 1006.90 1006.84 1006.76 1006.62 1006.50 1006.34 1006.26 1006.10 1005.90 1005.78 1005.72 1005.62 1005.54 1005.54 1005.56 1005.62 1005.72 1005.78 1005.84 1005.88 1005.90 1005.94 1006.00 1006.06 1006.20 1006.28
1013.34 1013.20 1012.98 1012.70 1012.42 1012.12 1011.90 1011.78 1011.82 1011.88 1011.90 1011.84 1011.72 1011.62 1011.56 1011.54 1011.44 1011.26 1010.98 1010.62 1010.28 1010.06 1009.90 1009.72 1009.56 1009.48 1009.44 1009.38 1009.26 1009.12 1008.98 1008.82 1008.66 1008.54 1008.38 1008.26 1008.16 1008.04 1007.94 1007.82 1007.70 1007.60 1007.48 1007.38 1007.28 1007.16 1007.04 1006.94 1006.84 1006.76 1006.70 1006.66 1006.62 1006.48 1006.32 1006.16 1006.04 1005.94 1005.88 1005.84 1005.84 1005.88 1005.90 1005.90 1005.98 1006.00 1006.06 1006.10 1006.16
1013.32 1013.10 1012.90 1012.72 1012.50 1012.34 1012.22 1012.16 1012.22 1012.28 1012.28 1012.20 1012.06 1011.94 1011.84 1011.76 1011.66 1011.48 1011.22 1010.94 1010.72 1010.50 1010.28 1010.06 1009.94 1009.84 1009.82 1009.76 1009.70 1009.60 1009.44 1009.26 1009.10 1008.90 1008.76 1008.62 1008.54 1008.44 1008.34 1008.26 1008.12 1008.00 1007.88 1007.78 1007.66 1007.54 1007.42 1007.34 1007.26 1007.20 1007.12 1007.10 1007.04 1007.00 1006.94 1006.84 1006.76 1006.66 1006.54 1006.38 1006.26 1006.12 1006.06 1005.98 1005.98 1006.00 1006.04 1006.04 1006.06
1013.28 1013.12 1012.98 1012.84 1012.76 1012.66 1012.60 1012.62 1012.70 1012.72 1012.70 1012.60 1012.42 1012.22 1012.04 1011.90 1011.82 1011.66 1011.48 1011.26 1011.06 1010.84 1010.60 1010.42 1010.26 1010.16 1010.10 1010.00 1009.94 1009.84 1009.76 1009.62 1009.48 1009.28 1009.16 1009.04 1008.98 1008.84 1008.76 1008.66 1008.54 1008.42 1008.26 1008.12 1007.98 1007.84 1007.78 1007.76 1007.66 1007.60 1007.56 1007.54 1007.48 1007.42 1007.38 1007.32 1007.26 1007.16 1007.10 1007.04 1006.94 1006.78 1006.60 1006.44 1006.26 1006.12 1006.10 1006.06 1006.06
1013.34 1013.26 1013.20 1013.10 1013.00 1012.94 1012.94 1013.06 1013.20 1013.20 1013.10 1012.98 1012.82 1012.60 1012.38 1012.26 1012.12 1012.00 1011.84 1011.66 1011.42 1011.20 1010.98 1010.78 1010.66 1010.54 1010.42 1010.26 1010.10 1010.00 1009.98 1009.88 1009.76 1009.66 1009.56 1009.50 1009.38 1009.26 1009.16 1009.04 1008.90 1008.78 1008.62 1008.48 1008.32 1008.22 1008.16 1008.12 1008.12 1008.06 1008.00 1007.94 1007.88 1007.82 1007.78 1007.70 1007.62 1007.56 1007.50 1007.44 1007.34 1007.28 1007.20 1007.04 1006.84 1006.62 1006.38 1006.26 1006.16
1013.48 1013.44 1013.42 1013.34 1013.28 1013.28 1013.38 1013.56 1013.66 1013.60 1013.44 1013.28 1013.20 1013.04 1012.88 1012.72 1012.60 1012.44 1012.26 1012.04 1011.76 1011.54 1011.34 1011.16 1011.00 1010.88 1010.76 1010.60 1010.44 1010.28 1010.22 1010.20 1010.12 1010.06 1009.98 1009.90 1009.76 1009.60 1009.48 1009.38 1009.26 1009.10 1008.94 1008.82 1008.76 1008.70 1008.62 1008.60 1008.56 1008.50 1008.38 1008.32 1008.26 1008.20 1008.12 1008.04 1007.98 1007.94 1007.88 1007.78 1007.72 1007.66 1007.56 1007.48 1007.38 1007.20 1006.98 1006.78 1006.54
1013.72 1013.72 1013.70 1013.70 1013.70 1013.76 1013.88 1014.00 1014.00 1013.88 1013.72 1013.60 1013.48 1013.34 1013.22 1013.10 1012.98 1012.78 1012.54 1012.26 1012.00 1011.84 1011.66 1011.48 1011.32 1011.16 1011.06 1010.94 1010.84 1010.72 1010.62 1010.60 1010.56 1010.50 1010.42 1010.28 1010.10 1009.94 1009.82 1009.70 1009.60 1009.48 1009.32 1009.26 1009.22 1009.20 1009.16 1009.10 1009.00 1008.90 1008.78 1008.70 1008.56 1008.48 1008.38 1008.32 1008.28 1008.22 1008.16 1008.10 1008.06 1008.00 1007.94 1007.84 1007.76 1007.66 1007.50 1007.32 1007.10
1014.22 1014.20 1014.20 1014.20 1014.20 1014.22 1014.26 1014.26 1014.16 1014.06 1013.94 1013.78 1013.62 1013.48 1013.34 1013.26 1013.12 1012.90 1012.66 1012.44 1012.26 1012.06 1011.88 1011.72 1011.56 1011.44 1011.32 1011.22 1011.16 1011.10 1011.04 1011.00 1010.98 1010.94 1010.84 1010.70 1010.50 1010.34 1010.26 1010.12 1010.04 1009.90 1009.82 1009.72 1009.66 1009.62 1009.56 1009.48 1009.38 1009.26 1009.12 1009.00 1008.88 1008.76 1008.62 1008.56 1008.50 1008.44 1008.38 1008.34 1008.34 1008.32 1008.26 1008.20 1008.10 1007.98 1007.84 1007.66 1007.50
1014.76 1014.76 1014.72 1014.70 1014.62 1014.60 1014.54 1014.48 1014.32 1014.16 1014.00 1013.84 1013.66 1013.54 1013.44 1013.32 1013.16 1013.00 1012.82 1012.66 1012.44 1012.22 1012.00 1011.84 1011.78 1011.66 1011.56 1011.48 1011.44 1011.42 1011.42 1011.38 1011.34 1011.28 1011.16 1011.04 1010.90 1010.78 1010.70 1010.56 1010.44 1010.32 1010.22 1010.12 1010.06 1009.98 1009.90 1009.78 1009.70 1009.54 1009.38 1009.26 1009.12 1009.00 1008.88 1008.76 1008.72 1008.66 1008.60 1008.56 1008.56 1008.56 1008.54 1008.48 1008.38 1008.26 1008.10 1007.94 1007.78
1015.20 1015.20 1015.12 1015.06 1014.98 1014.88 1014.72 1014.60 1014.42 1014.22 1014.04 1013.84 1013.72 1013.62 1013.54 1013.44 1013.34 1013.22 1013.06 1012.88 1012.62 1012.44 1012.26 1012.12 1012.04 1011.94 1011.88 1011.82 1011.76 1011.76 1011.72 1011.70 1011.66 1011.56 1011.42 1011.26 1011.16 1011.06 1011.00 1010.88 1010.76 1010.60 1010.48 1010.38 1010.32 1010.20 1010.10 1010.00 1009.90 1009.78 1009.66 1009.50 1009.38 1009.26 1009.10 1008.98 1008.90 1008.84 1008.82 1008.78 1008.76 1008.76 1008.72 1008.70 1008.60 1008.48 1008.34 1008.22 1008.10
1015.48 1015.44 1015.38 1015.28 1015.20 1015.04 1014.88 1014.70 1014.50 1014.32 1014.16 1014.06 1013.98 1013.88 1013.78 1013.72 1013.62 1013.54 1013.38 1013.20 1012.98 1012.82 1012.70 1012.56 1012.48 1012.38 1012.32 1012.26 1012.16 1012.06 1012.00 1011.94 1011.84 1011.76 1011.62 1011.50 1011.38 1011.26 1011.16 1011.04 1010.94 1010.78 1010.66 1010.60 1010.56 1010.48 1010.34 1010.20 1010.06 1009.98 1009.88 1009.76 1009.66 1009.50 1009.34 1009.20 1009.10 1009.06 1009.00 1008.98 1008.90 1008.90 1008.88 1008.82 1008.76 1008.66 1008.54 1008.44 1008.38
1015.72 1015.66 1015.56 1015.44 1015.32 1015.20 1015.04 1014.84 1014.70 1014.56 1014.48 1014.44 1014.34 1014.22 1014.12 1014.04 1013.94 1013.82 1013.66 1013.50 1013.38 1013.26 1013.16 1013.06 1012.94 1012.82 1012.72 1012.66 1012.50 1012.38 1012.26 1012.16 1012.06 1011.94 1011.84 1011.72 1011.60 1011.48 1011.34 1011.22 1011.12 1011.04 1010.98 1010.90 1010.88 1010.78 1010.62 1010.48 1010.32 1010.20 1010.10 1010.04 1009.90 1009.78 1009.66 1009.54 1009.44 1009.38 1009.28 1009.20 1009.12 1009.10 1009.04 1008.98 1008.90 1008.84 1008.76 1008.70 1008.60
1015.94 1015.84 1015.72 1015.60 1015.50 1015.34 1015.20 1015.06 1014.98 1014.90 1014.88 1014.82 1014.70 1014.56 1014.42 1014.28 1014.20 1014.04 1013.90 1013.78 1013.66 1013.56 1013.48 1013.38 1013.26 1013.12 1013.00 1012.94 1012.84 1012.70 1012.54 1012.42 1012.32 1012.22 1012.10 1011.98 1011.84 1011.76 1011.62 1011.50 1011.38 1011.32 1011.28 1011.26 1011.20 1011.06 1010.90 1010.78 1010.62 1010.50 1010.38 1010.28 1010.20 1010.06 1009.98 1009.88 1009.82 1009.76 1009.62 1009.54 1009.44 1009.34 1009.26 1009.16 1009.10 1009.06 1009.00 1008.98 1008.90
1016.22 1016.06 1015.94 1015.84 1015.76 1015.60 1015.48 1015.38 1015.32 1015.26 1015.16 1015.06 1014.90 1014.76 1014.60 1014.48 1014.34 1014.22 1014.10 1013.98 1013.84 1013.76 1013.70 1013.56 1013.48 1013.34 1013.22 1013.16 1013.10 1012.94 1012.78 1012.66 1012.56 1012.48 1012.34 1012.22 1012.12 1012.00 1011.90 1011.84 1011.78 1011.70 1011.66 1011.60 1011.48 1011.32 1011.16 1011.04 1010.88 1010.76 1010.62 1010.54 1010.44 1010.38 1010.28 1010.16 1010.12 1010.06 1010.00 1009.88 1009.76 1009.66 1009.56 1009.48 1009.38 1009.32 1009.32 1009.28 1009.26
1016.56 1016.44 1016.32 1016.16 1016.06 1015.94 1015.82 1015.72 1015.60 1015.48 1015.34 1015.22 1015.06 1014.94 1014.82 1014.66 1014.50 1014.34 1014.26 1014.12 1014.04 1013.94 1013.84 1013.76 1013.66 1013.56 1013.48 1013.38 1013.28 1013.20 1013.10 1013.00 1012.88 1012.78 1012.66 1012.54 1012.42 1012.28 1012.22 1012.20 1012.12 1012.06 1011.98 1011.84 1011.70 1011.54 1011.38 1011.22 1011.10 1010.98 1010.84 1010.78 1010.72 1010.66 1010.56 1010.50 1010.42 1010.34 1010.28 1010.20 1010.10 1009.98 1009.90 1009.82 1009.72 1009.62 1009.56 1009.54 1009.50
1016.94 1016.82 1016.70 1016.50 1016.38 1016.28 1016.16 1016.00 1015.88 1015.72 1015.56 1015.44 1015.32 1015.20 1015.04 1014.88 1014.72 1014.56 1014.44 1014.32 1014.20 1014.10 1013.98 1013.88 1013.84 1013.78 1013.70 1013.56 1013.50 1013.44 1013.34 1013.26 1013.12 1013.04 1012.94 1012.84 1012.70 1012.60 1012.54 1012.50 1012.48 1012.38 1012.22 1012.04 1011.88 1011.72 1011.56 1011.42 1011.28 1011.20 1011.06 1010.98 1010.94 1010.88 1010.82 1010.76 1010.66 1010.60 1010.50 1010.42 1010.34 1010.28 1010.20 1010.12 1010.00 1009.90 1009.82 1009.72 1009.66
1017.28 1017.16 1017.00 1016.82 1016.70 1016.56 1016.44 1016.28 1016.16 1016.00 1015.88 1015.72 1015.62 1015.48 1015.32 1015.12 1014.98 1014.82 1014.70 1014.56 1014.42 1014.28 1014.20 1014.12 1014.06 1013.98 1013.88 1013.78 1013.72 1013.62 1013.54 1013.44 1013.42 1013.32 1013.20 1013.10 1012.98 1012.88 1012.82 1012.78 1012.72 1012.62 1012.44 1012.22 1012.06 1011.90 1011.76 1011.62 1011.50 1011.34 1011.26 1011.20 1011.16 1011.10 1011.04 1010.94 1010.88 1010.82 1010.72 1010.62 1010.60 1010.54 1010.44 1010.34 1010.26 1010.12 1010.04 1009.90 1009.78
1017.50 1017.34 1017.20 1017.10 1016.94 1016.82 1016.72 1016.60 1016.44 1016.32 1016.20 1016.06 1015.90 1015.76 1015.56 1015.42 1015.22 1015.10 1014.94 1014.84 1014.72 1014.62 1014.56 1014.48 1014.34 1014.22 1014.10 1014.04 1013.90 1013.78 1013.72 1013.70 1013.62 1013.54 1013.42 1013.32 1013.20 1013.12 1013.06 1013.00 1012.94 1012.82 1012.62 1012.44 1012.26 1012.12 1011.98 1011.84 1011.70 1011.56 1011.44 1011.38 1011.38 1011.32 1011.26 1011.16 1011.06 1011.00 1010.94 1010.88 1010.78 1010.72 1010.60 1010.50 1010.42 1010.28 1010.16 1010.06 1009.88
1017.72 1017.54 1017.38 1017.26 1017.12 1017.04 1016.94 1016.84 1016.72 1016.60 1016.44 1016.32 1016.20 1016.04 1015.84 1015.66 1015.54 1015.38 1015.26 1015.16 1015.06 1014.98 1014.88 1014.72 1014.56 1014.44 1014.32 1014.20 1014.06 1013.98 1013.90 1013.88 1013.82 1013.70 1013.60 1013.50 1013.38 1013.32 1013.26 1013.16 1013.10 1012.98 1012.82 1012.62 1012.48 1012.28 1012.16 1012.04 1011.88 1011.76 1011.66 1011.56 1011.54 1011.50 1011.44 1011.32 1011.22 1011.12 1011.06 1011.00 1010.90 1010.82 1010.70 1010.56 1010.48 1010.34 1010.22 1010.10 1009.90
1017.94 1017.76 1017.60 1017.44 1017.32 1017.22 1017.12 1017.04 1016.90 1016.76 1016.62 1016.48 1016.34 1016.22 1016.06 1015.90 1015.78 1015.70 1015.56 1015.44 1015.32 1015.20 1015.06 1014.90 1014.78 1014.62 1014.48 1014.32 1014.22 1014.16 1014.10 1014.04 1013.98 1013.90 1013.82 1013.72 1013.60 1013.50 1013.38 1013.28 1013.22 1013.10 1012.98 1012.82 1012.62 1012.48 1012.32 1012.16 1012.04 1011.90 1011.78 1011.70 1011.70 1011.66 1011.56 1011.48 1011.38 1011.28 1011.20 1011.12 1011.04 1010.94 1010.82 1010.70 1010.56 1010.44 1010.28 1010.12 1009.98
1018.12 1017.98 1017.82 1017.62 1017.54 1017.42 1017.32 1017.20 1017.06 1016.90 1016.76 1016.62 1016.48 1016.32 1016.22 1016.10 1015.98 1015.88 1015.76 1015.62 1015.50 1015.34 1015.22 1015.10 1014.98 1014.84 1014.72 1014.60 1014.48 1014.38 1014.32 1014.28 1014.20 1014.10 1014.00 1013.90 1013.78 1013.66 1013.50 1013.38 1013.34 1013.26 1013.12 1012.94 1012.76 1012.60 1012.48 1012.32 1012.20 1012.04 1011.90 1011.84 1011.82 1011.78 1011.70 1011.56 1011.48 1011.38 1011.28 1011.22 1011.12 1011.04 1010.94 1010.82 1010.70 1010.54 1010.38 1010.20 1010.04
1018.32 1018.16 1018.00 1017.84 1017.72 1017.60 1017.48 1017.32 1017.20 1017.00 1016.82 1016.70 1016.56 1016.44 1016.32 1016.22 1016.06 1015.94 1015.84 1015.76 1015.66 1015.54 1015.42 1015.34 1015.22 1015.12 1015.00 1014.84 1014.72 1014.62 1014.56 1014.44 1014.34 1014.26 1014.12 1014.00 1013.90 1013.78 1013.62 1013.56 1013.54 1013.48 1013.32 1013.10 1012.94 1012.78 1012.62 1012.44 1012.32 1012.16 1012.04 1011.90 1011.88 1011.82 1011.72 1011.60 1011.50 1011.44 1011.34 1011.26 1011.16 1011.06 1010.98 1010.88 1010.72 1010.56 1010.44 1010.32 1010.16
1018.54 1018.34 1018.16 1018.04 1017.88 1017.72 1017.56 1017.42 1017.28 1017.10 1016.94 1016.78 1016.62 1016.50 1016.42 1016.28 1016.12 1016.04 1015.94 1015.88 1015.78 1015.66 1015.54 1015.44 1015.38 1015.26 1015.12 1015.00 1014.84 1014.78 1014.70 1014.56 1014.48 1014.42 1014.32 1014.20 1014.04 1013.88 1013.76 1013.70 1013.70 1013.60 1013.48 1013.28 1013.10 1012.90 1012.76 1012.56 1012.42 1012.26 1012.12 1012.04 1011.94 1011.84 1011.76 1011.62 1011.54 1011.44 1011.38 1011.28 1011.20 1011.10 1011.00 1010.90 1010.78 1010.66 1010.54 1010.42 1010.26
1018.70 1018.50 1018.32 1018.12 1018.00 1017.84 1017.70 1017.54 1017.34 1017.20 1017.04 1016.88 1016.72 1016.60 1016.48 1016.32 1016.22 1016.12 1016.04 1015.94 1015.82 1015.66 1015.54 1015.48 1015.34 1015.26 1015.16 1015.04 1014.90 1014.84 1014.82 1014.72 1014.60 1014.54 1014.48 1014.34 1014.20 1014.04 1013.88 1013.82 1013.78 1013.72 1013.60 1013.44 1013.26 1013.06 1012.88 1012.72 1012.54 1012.38 1012.26 1012.12 1012.00 1011.90 1011.78 1011.66 1011.56 1011.48 1011.42 1011.34 1011.26 1011.16 1011.04 1010.94 1010.84 1010.76 1010.62 1010.50 1010.38
1018.82 1018.66 1018.44 1018.26 1018.10 1017.94 1017.82 1017.66 1017.48 1017.28 1017.12 1017.00 1016.88 1016.72 1016.60 1016.48 1016.34 1016.22 1016.12 1015.98 1015.82 1015.66 1015.56 1015.48 1015.34 1015.26 1015.20 1015.10 1014.98 1014.94 1014.90 1014.82 1014.72 1014.62 1014.54 1014.44 1014.32 1014.16 1014.04 1013.94 1013.88 1013.82 1013.72 1013.56 1013.38 1013.22 1013.04 1012.82 1012.66 1012.50 1012.34 1012.20 1012.10 1011.98 1011.84 1011.76 1011.66 1011.56 1011.50 1011.42 1011.32 1011.26 1011.20 1011.10 1010.98 1010.84 1010.72 1010.66 1010.56
1018.88 1018.76 1018.56 1018.38 1018.16 1018.04 1017.90 1017.76 1017.56 1017.42 1017.26 1017.12 1017.00 1016.88 1016.72 1016.60 1016.44 1016.32 1016.20 1016.10 1015.90 1015.76 1015.60 1015.50 1015.38 1015.32 1015.22 1015.12 1015.00 1014.94 1014.94 1014.84 1014.78 1014.70 1014.56 1014.50 1014.42 1014.28 1014.12 1014.00 1013.98 1013.90 1013.84 1013.72 1013.54 1013.34 1013.16 1012.94 1012.78 1012.62 1012.50 1012.38 1012.26 1012.12 1012.00 1011.90 1011.78 1011.72 1011.62 1011.54 1011.44 1011.34 1011.28 1011.20 1011.06 1010.94 1010.84 1010.78 1010.76
1018.90 1018.78 1018.62 1018.44 1018.26 1018.10 1017.98 1017.82 1017.66 1017.50 1017.38 1017.26 1017.10 1016.94 1016.78 1016.66 1016.54 1016.42 1016.32 1016.16 1016.00 1015.84 1015.70 1015.54 1015.44 1015.38 1015.26 1015.12 1015.00 1014.90 1014.82 1014.78 1014.76 1014.66 1014.56 1014.50 1014.48 1014.34 1014.22 1014.06 1013.98 1013.94 1013.88 1013.78 1013.62 1013.48 1013.28 1013.10 1012.98 1012.82 1012.70 1012.56 1012.48 1012.32 1012.20 1012.10 1011.98 1011.84 1011.76 1011.66 1011.54 1011.44 1011.34 1011.26 1011.16 1011.06 1010.98 1010.90 1010.84
1018.94 1018.78 1018.62 1018.48 1018.28 1018.12 1017.98 1017.84 1017.70 1017.56 1017.44 1017.32 1017.16 1017.00 1016.84 1016.76 1016.62 1016.50 1016.34 1016.20 1016.04 1015.88 1015.72 1015.60 1015.48 1015.34 1015.22 1015.06 1014.94 1014.84 1014.72 1014.66 1014.62 1014.60 1014.54 1014.48 1014.42 1014.32 1014.20 1014.06 1013.98 1013.88 1013.82 1013.76 1013.66 1013.50 1013.34 1013.22 1013.10 1013.00 1012.88 1012.76 1012.66 1012.54 1012.38 1012.28 1012.12 1011.98 1011.84 1011.76 1011.62 1011.50 1011.38 1011.28 1011.22 1011.16 1011.06 1010.94 1010.84
1018.90 1018.76 1018.56 1018.42 1018.22 1018.06 1017.90 1017.78 1017.62 1017.54 1017.42 1017.28 1017.12 1017.00 1016.88 1016.76 1016.62 1016.48 1016.32 1016.16 1016.00 1015.84 1015.72 1015.56 1015.44 1015.28 1015.16 1015.04 1014.90 1014.82 1014.72 1014.60 1014.56 1014.54 1014.48 1014.38 1014.28 1014.20 1014.10 1013.98 1013.88 1013.78 1013.72 1013.70 1013.62 1013.54 1013.42 1013.28 1013.16 1013.06 1012.98 1012.88 1012.76 1012.66 1012.54 1012.38 1012.26 1012.10 1011.94 1011.84 1011.72 1011.60 1011.48 1011.32 1011.26 1011.20 1011.12 1010.98 1010.88
Wind_Speed
11 10 8 6 5 4 3 3 3 4 4 4 5 5 6 7 8 7 6 4 5 6 6 6 6 6 6 8 8 8 8 8 8 8 8 9 11 13 14 14 13 13 13 13 13 13 12 13 11 9 8 9 10 10 9 9 10 11 11 10 10 11 12 14 14 16 18 17 13
13 12 11 10 9 7 7 7 8 8 8 7 6 6 5 5 5 5 6 6 7 7 7 5 6 7 8 8 8 8 7 7 7 7 7 8 9 10 12 13 13 13 13 14 13 11 10 11 9 7 6 6 7 8 9 9 10 11 12 13 10 10 11 12 13 15 17 17 14
13 13 12 12 11 10 9 8 9 10 10 9 8 8 8 8 7 7 7 7 8 8 8 7 6 7 8 9 8 7 7 6 6 6 6 6 6 6 8 9 11 12 13 13 12 10 9 10 8 6 5 4 6 7 8 8 9 11 12 14 11 9 9 9 11 11 11 11 12
15 14 14 14 15 14 12 10 10 11 10 8 8 8 8 7 7 7 7 8 9 9 9 10 9 8 7 7 8 7 7 5 5 5 5 5 4 4 4 5 7 9 11 12 12 11 10 10 7 6 5 5 6 6 6 6 8 9 10 11 9 9 10 9 9 9 8 7 8
16 15 14 14 15 14 13 12 12 11 10 8 8 8 8 8 8 8 8 8 9 9 10 11 11 11 11 10 8 6 5 5 4 4 4 4 4 3 3 3 4 5 6 8 10 10 10 10 7 6 6 6 6 6 6 6 7 7 7 6 7 8 9 9 9 8 7 7 6
15 16 16 15 16 15 13 12 12 11 10 9 11 11 10 9 9 9 10 10 10 11 12 13 12 12 13 15 15 13 11 8 5 4 4 4 4 3 3 3 3 3 3 4 6 7 8 8 5 5 5 5 6 7 8 9 8 6 5 4 5 5 6 7 7 7 7 8 9
16 17 17 16 17 16 14 14 12 11 11 11 14 15 15 13 12 12 12 10 10 11 11 11 13 13 14 14 15 15 15 14 13 12 10 7 4 3 3 3 4 4 4 4 4 4 4 5 3 3 3 4 4 6 9 10 9 8 7 6 4 4 5 6 5 6 7 10 12
16 17 17 17 17 16 16 16 14 13 12 12 15 17 17 16 15 14 13 11 11 11 11 11 13 15 15 15 15 14 14 15 15 15 15 14 13 10 6 2 1 3 4 5 4 4 3 2 2 1 2 2 3 5 8 11 11 11 10 9 7 6 5 6 6 6 8 11 13
16 16 17 16 16 16 16 16 16 16 15 16 17 18 18 17 16 15 13 11 11 12 12 12 14 16 16 17 16 15 14 14 14 15 15 15 17 17 16 13 10 7 3 2 3 4 4 3 2 2 2 2 2 3 6 9 11 12 11 10 9 9 9 8 9 10 10 11 13
16 16 16 15 15 15 15 15 16 16 17 17 18 18 18 17 16 14 12 10 11 13 14 14 15 16 17 17 16 15 14 13 13 14 15 15 16 17 17 16 17 16 14 12 7 3 2 3 3 3 3 3 3 3 5 7 9 10 9 7 9 11 12 12 13 13 13 13 14
16 16 15 13 13 13 13 14 14 15 16 16 16 16 16 16 15 14 12 12 13 14 16 15 16 16 16 15 15 15 14 14 13 14 15 16 16 16 16 15 16 17 17 16 14 11 8 5 2 2 3 4 4 4 5 6 7 8 7 5 8 10 13 14 14 13 13 13 15
15 14 13 12 12 12 12 13 13 13 14 15 14 14 14 14 15 14 14 14 14 15 15 15 16 16 15 13 14 14 14 14 15 15 15 16 16 16 16 16 16 16 16 16 14 13 12 13 12 9 6 2 0 2 3 5 6 7 7 6 6 8 10 11 12 11 10 12 13
13 12 11 11 12 12 13 13 12 12 13 13 13 12 12 12 13 14 14 15 14 13 12 13 14 15 14 14 14 13 14 14 15 15 14 15 15 15 16 16 16 16 15 14 13 12 12 13 16 16 16 13 10 7 5 2 3 5 6 6 7 7 8 9 9 9 9 11 11
11 11 12 12 13 13 13 14 12 12 12 13 12 11 10 10 11 12 12 13 13 12 11 11 12 12 13 14 14 14 14 14 14 15 15 15 15 16 16 15 16 15 14 13 13 14 14 14 15 16 16 17 16 15 14 12 8 6 4 4 6 7 8 8 9 9 10 11 11
12 12 13 13 14 13 13 14 12 12 12 12 12 11 10 9 10 11 11 12 11 11 11 11 11 11 12 13 14 14 14 14 15 15 15 16 16 16 16 16 16 16 15 14 14 15 15 16 15 15 15 15 15 16 16 15 15 14 12 11 8 6 5 7 8 9 10 11 11
13 14 14 14 14 14 14 13 11 11 11 12 12 12 11 11 11 11 12 12 11 11 11 13 12 11 12 13 13 13 13 14 14 15 15 16 16 16 16 16 16 16 16 16 15 15 16 15 15 15 15 15 14 14 14 14 14 15 15 15 14 13 11 9 7 7 8 10 10
15 15 15 15 16 16 15 13 11 11 11 12 13 13 13 12 11 12 12 13 12 12 13 14 13 12 13 13 13 12 13 13 14 14 14 15 15 15 16 16 16 16 16 17 16 16 16 15 14 14 14 14 14 14 14 14 13 14 14 14 14 15 15 15 14 11 9 7 7
16 16 16 17 17 17 16 14 12 11 12 12 12 12 12 12 12 12 12 12 13 13 14 14 13 13 13 14 13 13 13 13 14 14 14 14 14 15 15 15 16 16 16 16 17 17 16 16 15 14 13 13 13 12 12 13 13 13 13 13 14 14 14 15 15 14 13 12 10
17 17 17 17 17 16 15 13 12 11 11 11 11 11 12 12 12 11 11 12 13 13 13 13 13 14 14 14 13 13 13 13 15 15 15 14 14 14 15 15 15 16 16 16 16 16 15 15 14 14 13 13 12 12 12 12 12 12 13 13 13 13 14 14 14 14 14 14 14
17 17 16 16 15 14 13 12 11 11 10 10 11 12 12 12 13 13 13 13 13 13 13 13 14 14 14 14 14 14 13 12 14 14 14 13 14 14 15 15 15 15 16 16 16 15 14 14 14 13 13 13 13 12 12 12 12 12 12 11 12 13 13 13 13 13 14 14 14
16 15 15 14 14 13 12 12 11 11 11 11 12 13 13 13 13 14 14 14 14 14 14 14 15 15 15 15 15 14 13 11 12 12 12 12 12 12 13 13 14 14 14 15 15 15 14 13 13 13 13 13 13 12 11 11 11 12 12 10 11 12 12 12 13 13 14 14 14
14 13 13 13 12 12 12 12 12 12 13 13 14 14 14 14 14 14 14 14 14 15 15 15 15 16 16 15 14 13 12 11 12 11 11 11 11 11 11 11 12 13 14 15 15 14 14 14 13 13 13 13 13 12 12 11 11 11 11 11 11 11 12 12 12 13 13 13 13
13 13 12 11 12 12 13 12 13 13 14 14 14 14 14 14 14 14 14 14 14 14 14 14 14 14 15 14 14 13 13 12 12 12 12 12 11 11 11 10 11 13 14 14 14 14 13 13 13 13 13 12 12 12 12 13 12 11 12 12 12 12 11 11 12 12 13 13 13
14 13 12 11 12 13 13 13 14 14 14 14 14 14 13 13 13 13 13 13 13 13 13 11 12 12 13 13 14 13 13 13 13 13 13 13 12 12 11 10 11 12 13 13 15 15 14 12 12 12 12 11 11 11 11 12 12 12 12 12 12 11 11 11 12 12 13 13 12
14 13 13 12 13 13 14 14 14 14 13 13 13 13 13 12 12 12 12 13 13 13 12 11 11 11 11 12 13 13 13 13 13 13 13 13 13 12 11 10 11 11 12 13 18 20 19 16 14 12 11 10 10 10 11 11 12 12 12 11 11 11 11 12 12 12 12 12 12
14 14 14 14 14 14 14 14 13 13 13 12 13 13 12 12 12 12 13 13 13 12 12 11 11 11 11 11 12 12 12 12 13 13 13 13 13 13 12 10 10 10 11 15 19 21 21 20 18 15 12 10 10 10 10 10 11 11 11 11 11 11 11 12 12 12 11 11 12
14 14 14 13 14 14 14 13 13 13 13 13 13 13 13 13 12 13 13 13 13 12 11 11 11 10 10 10 11 12 12 11 12 12 13 13 13 13 12 10 9 9 12 17 20 20 20 20 20 19 15 11 9 9 9 9 10 10 10 10 10 10 11 11 11 11 11 11 11
13 13 13 13 13 13 13 13 13 13 13 13 13 13 13 13 13 14 14 13 13 12 11 10 10 9 8 9 10 11 12 12 11 11 12 12 13 13 12 10 9 11 14 19 20 20 20 20 20 20 18 13 9 8 8 8 9 9 8 8 9 9 10 10 10 10 10 11 11
12 12 12 13 13 13 13 13 13 13 13 13 13 13 13 13 13 14 14 14 14 13 11 9 9 8 8 9 10 11 11 12 11 11 11 12 12 12 11 10 10 12 16 21 20 20 20 20 20 20 19 16 10 7 7 7 7 7 7 7 8 8 9 8 9 9 9 10 10
12 12 12 12 12 12 12 12 12 12 12 11 12 13 13 13 13 13 13 13 13 12 11 10 9 10 10 11 10 11 11 11 11 11 11 12 12 12 11 10 10 12 15 20 20 20 20 20 20 20 19 17 12 8 7 7 7 7 7 7 7 8 9 9 9 9 9 9 9
13 12 12 12 12 12 12 12 12 11 11 11 11 12 12 12 13 13 12 12 12 11 11 11 12 12 12 11 11 11 11 11 11 11 12 12 12 12 11 11 11 12 15 20 20 20 20 20 20 19 18 17 12 9 7 7 7 7 7 7 8 9 9 9 9 9 10 10 10
13 12 12 12 12 12 12 12 11 11 11 11 11 11 11 11 11 11 11 11 11 11 12 12 12 12 12 12 12 12 12 12 12 12 12 12 11 11 11 11 11 13 16 20 20 20 20 20 20 19 18 16 11 9 8 8 7 7 7 8 9 10 10 9 9 10 11 11 10
13 12 12 12 12 12 12 12 11 11 11 11 11 11 11 11 10 10 10 10 10 10 11 11 12 12 11 11 11 12 12 11 12 12 12 12 11 11 11 10 10 13 16 20 20 20 20 20 20 19 18 16 11 9 8 8 7 6 7 8 8 9 10 10 9 10 10 11 10
12 12 12 12 12 11 11 11 11 11 11 11 11 11 11 10 10 10 10 9 9 9 9 10 10 10 10 10 10 10 11 10 11 12 12 12 11 11 11 10 9 12 17 20 20 20 20 20 20 19 18 15 10 8 8 8 7 7 7 8 9 9 10 10 10 10 10 11 10
12 11 11 11 11 11 11 11 11 11 11 11 11 11 11 10 10 10 10 9 9 8 8 9 9 9 8 8 9 9 10 10 10 11 11 11 11 11 11 10 10 13 17 19 20 20 20 19 19 19 17 13 9 7 8 8 8 8 9 9 10 10 11 11 10 10 10 10 11
11 11 11 11 10 10 11 11 11 11 11 11 11 11 11 10 10 10 9 9 9 9 8 8 8 9 9 8 8 8 9 9 10 10 10 11 11 11 11 11 11 13 16 18 19 19 19 19 19 19 16 12 8 7 8 8 7 8 9 10 10 11 11 11 10 10 10 10 11
10 10 10 10 10 10 10 10 10 11 11 11 11 10 10 10 9 9 9 9 9 9 9 8 9 9 9 8 7 7 7 8 8 9 9 9 10 10 10 10 10 12 14 16 17 18 18 18 19 18 16 11 9 8 8 8 7 8 9 10 10 10 10 10 10 10 10 10 11
9 9 9 10 10 10 10 10 10 11 11 11 10 10 9 9 9 9 9 8 8 8 8 8 9 9 8 8 7 6 6 6 7 8 8 8 8 9 9 9 9 10 11 14 16 17 17 18 18 18 16 11 10 9 8 7 8 8 8 9 9 9 10 8 8 8 9 11 12
10 10 10 10 10 10 10 10 11 11 11 11 10 10 9 9 8 8 8 8 8 8 8 8 9 9 8 7 6 6 6 6 7 7 7 7 7 7 8 8 8 8 10 12 14 15 16 17 17 17 16 11 10 9 8 7 8 8 8 8 8 9 9 8 8 8 9 11 13
10 10 10 10 10 11 11 11 11 11 11 11 11 10 10 9 8 8 8 8 8 8 8 8 9 9 9 8 7 7 8 8 8 8 8 8 7 7 8 8 8 9 10 11 13 15 16 16 17 17 16 11 9 8 7 7 7 8 8 8 8 8 8 8 8 7 8 10 11
11 12 12 12 12 12 12 12 12 12 12 12 12 11 10 10 10 10 10 9 10 10 9 9 11 11 11 10 9 9 10 10 10 10 10 10 9 9 9 9 10 10 11 12 14 15 16 16 17 17 16 12 9 7 6 6 7 7 8 8 8 7 7 8 7 7 8 9 9
Wind_Direction
26 21 12 358 343 322 299 298 313 308 296 283 271 263 257 253 254 257 258 255 251 248 247 245 244 243 242 239 240 242 243 243 241 242 243 245 242 233 223 213 206 202 199 197 195 195 194 192 190 189 188 187 185 183 183 182 183 185 187 188 192 197 201 203 204 204 202 200 198
40 38 37 34 31 32 31 27 18 12 8 6 357 347 335 322 314 316 319 316 297 285 275 261 252 249 247 246 246 247 248 249 249 250 249 248 247 240 229 217 207 201 197 194 191 189 188 186 186 186 185 184 182 182 182 181 181 184 187 189 189 193 198 202 202 202 202 201 198
40 40 39 39 37 38 38 36 27 23 21 20 18 17 16 15 12 7 2 357 347 340 331 317 297 275 259 249 246 246 248 251 252 253 252 247 246 244 239 233 222 212 202 193 189 186 182 179 177 176 173 174 179 182 182 182 181 184 187 189 188 189 192 197 196 196 197 197 195
40 39 39 38 38 39 39 37 31 27 25 23 22 23 23 21 18 14 10 7 6 4 359 349 341 329 308 279 259 248 243 244 249 252 251 244 233 230 234 240 229 218 208 199 194 189 183 177 174 169 165 164 172 178 181 180 182 186 188 189 188 187 189 191 190 191 191 191 191
40 40 39 38 37 38 39 38 34 31 29 27 27 26 25 23 20 17 16 16 15 11 6 3 3 1 358 350 333 310 281 255 246 243 243 240 224 209 195 193 205 209 207 205 202 197 191 183 177 171 168 165 168 170 170 168 177 183 188 188 189 188 188 188 187 187 186 187 186
41 41 40 39 38 38 38 36 34 33 33 33 34 33 30 26 23 21 21 21 18 14 12 12 14 14 14 15 13 8 1 350 338 313 278 244 227 210 192 175 178 182 190 197 203 204 201 194 188 179 172 167 168 166 163 160 166 172 179 185 189 188 185 185 183 182 183 187 189
41 41 40 39 38 37 36 34 33 33 33 36 35 34 31 27 25 23 23 22 19 17 16 17 19 20 22 24 24 22 19 16 11 4 355 338 312 260 217 192 180 176 175 176 183 193 201 203 198 189 181 178 174 172 169 165 165 168 174 181 184 186 186 185 180 180 186 194 198
41 40 39 38 37 36 35 35 34 33 33 34 33 32 30 27 25 23 22 22 22 21 21 21 23 25 27 28 27 26 25 24 23 21 18 14 6 358 346 317 243 203 192 184 180 178 179 188 187 178 173 182 186 183 179 174 172 173 176 179 181 183 186 188 186 188 194 200 204
39 38 37 36 34 33 33 33 34 35 35 35 33 31 29 26 24 23 23 23 23 23 24 25 25 27 28 29 28 26 25 25 26 25 26 27 26 22 16 9 4 357 336 282 212 193 184 179 175 159 144 149 177 193 194 188 184 182 181 181 181 183 187 193 195 196 199 203 209
37 37 36 35 32 32 33 33 34 35 36 36 33 31 29 27 25 23 22 21 23 25 26 26 26 27 28 28 27 26 25 25 25 26 28 30 31 31 29 27 22 17 11 3 349 315 231 200 192 180 167 155 168 186 199 203 201 197 193 188 187 188 190 192 196 197 199 202 207
36 35 34 34 32 32 34 36 35 35 34 34 32 31 29 28 25 23 21 21 25 27 27 26 26 27 27 27 25 24 24 24 25 27 29 31 31 32 32 31 30 28 25 19 13 8 3 359 336 219 188 172 171 178 190 202 209 210 209 208 200 196 194 194 195 195 197 199 203
35 34 33 32 31 34 37 39 37 34 32 30 29 29 28 27 23 21 21 23 27 28 27 26 27 27 27 25 23 23 24 25 26 29 30 31 31 31 31 31 31 30 29 27 24 22 21 19 13 9 6 10 112 185 193 199 206 211 214 215 209 204 201 197 195 194 194 195 199
35 34 33 31 31 34 37 39 36 32 28 25 24 25 25 22 19 19 20 24 26 27 27 27 28 28 27 25 23 22 23 24 26 28 30 30 30 30 30 30 30 30 30 29 28 28 28 27 26 24 20 15 11 6 355 321 241 223 218 216 215 214 211 206 201 198 196 196 200
37 35 34 32 31 33 35 36 33 28 23 19 19 19 20 18 16 16 18 22 25 26 27 28 29 29 28 27 25 24 23 24 26 28 30 30 30 30 30 29 29 29 30 29 29 29 30 30 29 29 27 25 20 16 12 7 1 348 317 264 237 228 223 218 213 207 203 201 204
37 35 34 33 33 34 34 34 31 26 20 17 15 16 17 18 17 17 18 20 23 25 28 30 30 30 30 30 29 28 26 26 26 28 29 30 30 30 29 29 28 28 28 28 29 30 30 30 29 28 27 26 24 22 20 18 17 14 9 359 341 314 280 250 234 224 218 214 212
37 35 34 34 35 35 36 34 31 25 21 18 15 16 18 18 18 18 19 20 22 26 29 31 31 29 29 30 30 30 29 27 27 28 28 29 29 29 29 28 27 27 27 27 28 28 28 27 27 26 26 25 23 22 20 20 20 19 18 15 11 4 354 337 312 278 252 237 230
37 35 33 33 35 36 36 34 30 26 23 21 18 18 18 18 18 18 19 21 23 27 29 31 31 30 28 27 28 29 30 27 27 26 26 27 27 28 28 28 27 26 26 26 26 26 25 24 23 24 24 24 23 22 20 19 19 18 17 16 15 12 9 3 356 345 326 297 266
34 33 32 31 33 34 34 32 29 27 26 26 24 22 21 20 18 17 17 20 24 27 29 31 32 31 30 28 27 28 30 28 27 25 25 24 25 26 27 27 26 25 25 25 25 24 23 21 20 20 21 22 22 21 20 20 19 18 16 15 13 11 9 6 4 1 357 350 337
31 30 29 28 30 31 31 30 27 25 25 26 27 26 25 23 20 18 18 19 23 26 28 30 31 32 31 30 29 29 30 30 27 26 24 24 24 25 26 26 25 25 25 25 24 22 21 19 18 18 18 19 19 19 19 20 19 18 16 15 13 10 7 4 2 2 1 1 358
31 29 27 26 26 27 27 26 25 24 24 25 26 27 26 23 22 21 20 19 20 23 27 30 31 31 31 31 31 31 30 30 27 25 24 24 24 25 26 27 26 26 26 25 23 21 19 17 16 16 16 17 16 16 17 18 17 17 16 15 12 9 6 3 1 360 360 0 1
31 29 26 24 24 23 23 22 22 23 24 26 26 26 25 23 22 22 20 18 19 21 25 28 30 29 29 29 31 31 31 30 27 25 24 24 25 25 26 27 27 27 27 26 23 21 19 17 15 14 14 14 14 13 14 16 15 15 14 13 10 8 6 3 1 0 360 359 359
30 28 26 24 22 21 21 21 22 22 24 24 25 24 24 23 22 21 20 19 19 21 23 25 27 27 27 26 28 29 29 29 26 25 25 24 24 24 24 26 26 26 26 25 22 20 18 17 16 15 14 13 11 10 11 14 14 13 11 10 8 6 4 3 1 1 360 359 358
26 26 25 24 22 21 21 21 22 23 24 23 23 23 23 23 22 21 20 20 21 22 22 23 25 26 26 25 25 26 27 27 26 25 24 24 23 22 22 24 26 26 25 24 20 18 16 15 15 15 14 12 9 8 9 12 12 11 9 6 5 4 3 1 1 360 359 358 356
22 22 22 21 20 20 21 22 23 23 23 22 21 22 22 22 22 22 22 22 24 24 23 21 22 24 25 24 23 24 25 26 25 24 23 23 23 22 22 23 25 26 25 23 19 18 16 15 13 13 13 12 9 8 9 10 10 9 7 4 3 2 1 360 360 359 358 356 354
17 18 19 19 19 19 20 21 22 22 22 20 20 20 21 22 22 23 23 24 24 24 24 22 21 22 24 24 22 22 23 25 23 22 21 21 22 22 23 23 25 24 23 20 18 18 18 18 16 14 12 11 10 8 8 9 10 8 6 3 2 0 359 358 359 358 357 355 352
15 16 17 17 18 18 19 19 20 20 19 19 18 19 19 20 21 23 24 24 24 23 23 22 21 21 22 24 22 21 21 22 21 20 19 19 20 22 23 24 22 21 19 16 16 17 17 18 17 16 14 13 11 8 7 7 8 7 5 3 2 0 358 356 356 355 354 353 349
14 15 15 16 17 17 17 16 16 17 17 17 17 17 17 17 19 21 22 23 22 22 23 23 22 21 21 22 22 21 20 20 19 18 18 17 19 21 22 22 19 16 14 13 14 15 16 15 15 15 15 15 14 10 7 5 5 5 3 2 2 0 358 354 352 350 349 349 346
14 14 14 15 17 17 15 14 15 15 15 15 16 16 16 17 19 20 20 20 20 20 21 21 20 19 19 20 21 21 20 19 18 17 17 16 18 20 20 18 15 12 10 10 12 13 14 13 13 13 14 15 14 12 8 4 4 3 1 1 1 358 355 351 349 347 346 344 343
14 14 14 16 17 16 15 14 14 14 14 14 14 14 15 17 18 19 19 18 18 18 18 16 15 16 18 18 18 19 19 19 18 16 15 15 16 18 18 16 12 8 8 9 11 11 12 12 11 11 12 14 14 11 7 5 4 1 359 359 357 354 351 348 346 344 342 340 340
13 13 15 16 17 17 16 15 14 14 14 14 14 14 15 17 17 18 17 17 17 16 14 12 13 15 16 16 16 17 17 17 15 15 14 15 15 15 14 14 11 7 6 7 9 10 10 10 9 9 10 13 14 11 5 3 2 360 357 355 353 351 348 345 344 341 339 337 337
10 11 12 14 16 17 16 14 13 13 14 15 15 16 16 17 17 17 16 16 14 13 12 12 13 13 14 15 17 17 16 15 14 13 12 12 11 11 11 11 10 7 5 6 7 8 8 8 8 8 9 11 13 9 3 0 359 357 355 354 352 350 347 344 343 340 337 336 336
8 8 10 11 13 13 13 11 11 12 13 15 16 17 17 17 16 16 15 14 12 12 12 12 12 12 12 13 15 16 16 14 13 12 10 9 8 8 8 10 9 6 4 4 6 6 7 7 6 6 7 10 11 7 1 358 356 354 353 352 350 348 346 344 341 338 336 335 336
6 6 7 8 9 9 9 8 8 9 11 13 15 15 15 15 14 14 13 13 11 12 12 12 11 10 9 9 12 13 14 13 11 10 8 8 7 7 8 10 8 5 3 3 4 5 5 5 5 4 5 7 8 4 358 356 354 352 351 351 348 346 344 343 339 338 337 337 336
3 3 4 5 5 5 5 5 6 6 8 10 12 12 12 11 11 11 11 10 9 9 11 12 10 9 8 7 10 11 11 10 10 9 7 6 6 7 9 11 8 3 2 2 3 4 4 3 3 3 3 4 4 360 355 353 352 351 350 348 346 344 343 342 340 339 338 337 336
1 1 2 3 3 3 3 3 4 5 7 8 8 9 9 9 8 8 6 5 3 4 7 9 8 6 5 5 9 11 11 8 9 8 6 4 4 6 8 10 7 3 1 2 2 2 2 2 2 2 1 0 359 356 353 351 350 350 348 346 344 343 342 342 340 339 337 336 336
1 360 360 1 2 3 3 3 4 5 6 7 6 5 5 5 5 4 2 359 359 1 3 5 5 4 3 1 6 9 9 5 7 7 5 3 2 4 6 8 6 3 1 1 1 1 1 1 1 1 360 358 357 354 352 349 348 347 346 344 342 341 340 340 338 336 335 335 337
1 360 359 1 3 4 4 4 5 7 7 7 5 4 3 2 1 0 359 356 356 357 359 1 2 2 360 357 1 4 4 3 4 4 4 3 1 1 3 5 5 3 1 360 360 360 360 360 1 1 360 358 356 353 351 348 346 344 343 340 339 338 338 336 334 333 332 333 335
2 0 0 2 4 5 6 7 8 8 8 6 4 3 1 1 0 359 358 356 355 354 355 358 0 359 356 352 355 358 1 4 4 3 2 2 0 359 360 2 4 3 1 360 359 359 359 360 1 2 1 358 355 352 350 347 343 341 339 337 335 335 334 332 330 330 330 331 331
3 2 2 3 5 7 8 9 10 9 7 5 3 2 2 2 1 359 357 355 355 354 354 356 358 356 354 351 354 358 2 8 8 5 3 2 0 359 358 360 2 3 3 2 1 360 0 1 2 3 2 360 355 351 348 344 340 337 335 334 332 331 330 329 329 327 326 326 326
4 3 3 4 5 6 8 9 9 8 7 5 4 3 2 1 359 358 357 356 357 356 355 356 357 357 356 356 358 360 3 8 9 8 5 1 0 360 359 360 1 3 5 5 3 2 2 3 4 4 3 1 356 351 346 342 337 335 334 333 331 329 327 327 326 324 323 322 322
3 3 3 3 4 5 6 7 7 6 6 4 4 2 0 359 358 358 358 359 0 360 358 356 356 357 358 1 1 0 1 3 5 5 3 1 0 0 0 360 360 1 2 4 2 2 2 3 3 3 3 2 357 352 346 341 336 334 333 332 330 327 325 324 322 321 319 318 319